Flag for Japan Weather past 2 weeks in Nagoya, Japan

Now
54 °F

Sunny.


Feels Like: 49 °F
Forecast: 41 / 66 °F
Wind: 18 mph from Northwest

Location: Nagoya Airport

Current Time: Mar 30, 2015 at 8:49:04 AM

Latest Report: Mar 30, 2015 at 8:30 AM


Visibility: 10 mi

Pressure: 30.09 "Hg

Humidity: 67%

Dew point: 43 °F

Location of NagoyaLocation

Historic Weather in Nagoya — Graph

°F

Nagoya temperature yesterday

Maximum temperature yesterday: 54 °F (at 12:00 AM)
Minimum temperature yesterday: 48 °F (at 2:30 AM)
Average temperature yesterday: 52 °F

Past Weeks' High & Low Weather Summary

 TemperatureHumidityPressure
High66 °F (Mar 28, 3:00 PM)100% (Mar 16, 4:30 PM)30.51 "Hg (Mar 16, 4:30 PM)
Low39 °F (Mar 27, 5:00 AM)24% (Mar 26, 11:30 AM)29.68 "Hg (Mar 19, 12:30 PM)
Average52 °F70%30.09 "Hg
* Reported Mar 15 7:00 AM — Mar 30 7:30 AM, Nagoya, Weather by CustomWeather, © 2015

Note: Actual official high and low records may vary slightly from our data, if they occured in-between our weather recording intervals... More about our weather records

Advertising

Nagoya weather history for previous 24 hours

 ConditionsComfort  
Time TempWeatherWind HumidityBarometerVisibility
7:30 AM
Mon, Mar 30
52 °FClear.16 mph77%30.07 "Hg6 mi
7:00 AM52 °FClear.17 mph77%30.07 "Hg6 mi
6:30 AM52 °FClear.21 mph77%30.07 "Hg6 mi
6:00 AM52 °FPartly sunny.18 mph77%30.07 "HgN/A
5:30 AM52 °FPassing clouds.17 mph77%30.04 "HgN/A
5:00 AM52 °FPassing clouds.18 mph77%30.04 "HgN/A
4:30 AM54 °FPassing clouds.21 mph72%30.04 "HgN/A
4:00 AM54 °FPassing clouds.20 mph72%30.01 "HgN/A
3:30 AM54 °FPassing clouds.20 mph72%30.01 "HgN/A
3:00 AM54 °FPassing clouds.22 mph67%30.01 "HgN/A
2:30 AM52 °FPassing clouds.22 mph77%30.01 "HgN/A
2:00 AM54 °FPassing clouds.18 mph72%29.98 "HgN/A
1:30 AM54 °FPassing clouds.18 mph77%29.98 "HgN/A
1:00 AM52 °FPassing clouds.18 mph82%29.98 "HgN/A
12:30 AM54 °FPassing clouds.18 mph77%29.98 "HgN/A
12:00 AM54 °FPassing clouds.17 mph82%29.98 "HgN/A
11:30 PM
Sun, Mar 29
54 °FPassing clouds.13 mph82%29.98 "HgN/A
11:00 PM54 °FPassing clouds.14 mph82%29.98 "HgN/A
10:30 PM52 °FFog.9 mph94%29.98 "Hg3 mi
10:00 PM52 °FFog.8 mph94%29.98 "Hg3 mi
9:30 PM52 °FFog.3 mph94%29.98 "Hg3 mi
9:00 PM50 °FPassing clouds.7 mph94%29.98 "Hg4 mi
8:30 PM52 °FFog.9 mph94%29.98 "Hg3 mi
8:00 PM52 °FFog.14 mph94%29.98 "Hg3 mi
7:30 PM50 °FFog.12 mph100%29.95 "Hg3 mi
7:00 PM52 °FFog.12 mph94%29.95 "Hg3 mi
6:30 PM52 °FFog.14 mph94%29.95 "Hg2 mi
6:00 PM52 °FFog.10 mph100%29.95 "Hg2 mi
5:30 PM54 °FSprinkles. Fog.9 mph94%29.95 "Hg1 mi
5:00 PM54 °FSprinkles. Fog.10 mph94%29.95 "Hg2 mi
4:30 PM54 °FSprinkles. Fog.9 mph94%29.95 "Hg2 mi
4:00 PM54 °FFog.5 mph94%29.95 "Hg2 mi
3:30 PM54 °FLight rain. Fog.5 mph94%29.98 "Hg3 mi
3:00 PM54 °FLight rain. Fog.6 mph94%29.95 "Hg3 mi
2:30 PM54 °FLight rain. Fog.8 mph88%29.95 "Hg2 mi
2:00 PM52 °FLight rain. Fog.5 mph94%30.01 "Hg3 mi
1:30 PM52 °FLight rain. Fog.8 mph88%30.01 "Hg3 mi
1:00 PM52 °FLight rain. Partly sunny.12 mph88%30.01 "Hg4 mi
12:30 PM52 °FLight rain. Broken clouds.10 mph82%29.98 "Hg5 mi
12:00 PM54 °FLight rain. Broken clouds.8 mph77%30.01 "Hg4 mi
11:30 AM52 °FLight rain. Broken clouds.6 mph82%30.01 "Hg5 mi
11:00 AM54 °FLight rain. Partly sunny.2 mph77%30.01 "Hg5 mi
10:30 AM54 °FLight rain. Broken clouds.2 mph72%30.01 "HgN/A
10:00 AM54 °FLight rain. Broken clouds.5 mph72%30.01 "HgN/A
9:30 AM52 °FScattered showers. Partly sunny.5 mph77%30.04 "HgN/A
9:00 AM52 °FScattered showers. Partly sunny.5 mph77%30.04 "HgN/A
8:30 AM52 °FPartly sunny.5 mph82%30.04 "HgN/A
8:00 AM54 °FPartly sunny.3 mph77%30.01 "Hg5 mi
Weather by CustomWeather, © 2015

See weather overviewHow to use our weather pages